Time,TemperatureF,DewpointF,PressureIn,WindDirection,WindDirectionDegrees,WindSpeedMPH,WindSpeedGustMPH,Humidity,HourlyPrecipIn,Conditions,Clouds,dailyrainin,SoftwareType,DateUTC
2013-08-13 00:01:00,82.6,76.2,29.96,South,173,0.0,0.0,81,0.00,,,0.00,Wunderground v.1.15,2013-08-13 04:01:00,
2013-08-13 00:02:00,82.6,76.2,29.96,South,173,0.0,0.0,81,0.00,,,0.00,Wunderground v.1.15,2013-08-13 04:02:00,
2013-08-13 00:04:00,82.6,76.2,29.96,South,173,0.0,0.0,81,0.00,,,0.00,Wunderground v.1.15,2013-08-13 04:04:00,
2013-08-13 00:05:00,82.6,76.2,29.96,South,173,0.0,0.0,81,0.00,,,0.00,Wunderground v.1.15,2013-08-13 04:05:00,
2013-08-13 00:11:00,82.4,76.3,29.96,South,173,0.0,0.0,82,0.00,,,0.00,Wunderground v.1.15,2013-08-13 04:11:00,
2013-08-13 00:16:00,82.4,76.3,29.96,South,173,0.0,0.0,82,0.00,,,0.00,Wunderground v.1.15,2013-08-13 04:16:00,
2013-08-13 00:18:00,82.4,76.3,29.96,South,173,0.0,0.0,82,0.00,,,0.00,Wunderground v.1.15,2013-08-13 04:18:00,
2013-08-13 00:24:00,82.2,76.2,29.96,SW,225,0.0,0.0,82,0.00,,,0.00,Wunderground v.1.15,2013-08-13 04:24:00,
2013-08-13 00:29:00,82.2,76.2,29.96,SW,225,0.0,0.0,82,0.00,,,0.00,Wunderground v.1.15,2013-08-13 04:29:00,
2013-08-13 00:35:00,82.2,76.2,29.96,SW,225,0.0,0.0,82,0.00,,,0.00,Wunderground v.1.15,2013-08-13 04:35:00,
2013-08-13 00:41:00,82.2,76.5,29.96,SW,225,0.0,0.0,83,0.00,,,0.00,Wunderground v.1.15,2013-08-13 04:41:00,
2013-08-13 00:46:00,82.4,76.7,29.96,SW,225,0.0,0.0,83,0.00,,,0.00,Wunderground v.1.15,2013-08-13 04:46:00,
2013-08-13 00:52:00,82.2,76.5,29.96,SW,225,0.0,0.0,83,0.00,,,0.00,Wunderground v.1.15,2013-08-13 04:52:00,
2013-08-13 00:57:00,82.2,76.5,29.96,SW,225,0.0,2.0,83,0.00,,,0.00,Wunderground v.1.15,2013-08-13 04:57:00,
2013-08-13 01:02:00,82.4,76.3,29.96,SW,225,0.0,0.0,82,0.00,,,0.00,Wunderground v.1.15,2013-08-13 05:02:00,
2013-08-13 01:08:00,82.4,76.3,29.96,SW,225,0.0,0.0,82,0.00,,,0.00,Wunderground v.1.15,2013-08-13 05:08:00,
2013-08-13 01:14:00,82.4,76.3,29.96,SW,225,0.0,1.0,82,0.00,,,0.00,Wunderground v.1.15,2013-08-13 05:14:00,
2013-08-13 01:20:00,82.4,76.3,29.96,SW,225,0.0,0.0,82,0.00,,,0.00,Wunderground v.1.15,2013-08-13 05:20:00,
2013-08-13 01:25:00,82.4,76.3,29.96,SW,225,0.0,0.0,82,0.00,,,0.00,Wunderground v.1.15,2013-08-13 05:25:00,
2013-08-13 01:31:00,82.4,76.3,29.96,SW,225,0.0,0.0,82,0.00,,,0.00,Wunderground v.1.15,2013-08-13 05:31:00,
2013-08-13 01:37:00,82.4,76.7,29.96,SW,225,0.0,0.0,83,0.00,,,0.00,Wunderground v.1.15,2013-08-13 05:37:00,
2013-08-13 01:42:00,82.6,76.9,29.96,SW,225,0.0,0.0,83,0.00,,,0.00,Wunderground v.1.15,2013-08-13 05:42:00,
2013-08-13 01:48:00,82.6,77.3,29.96,SW,225,0.0,0.0,84,0.00,,,0.00,Wunderground v.1.15,2013-08-13 05:48:00,
2013-08-13 01:54:00,82.6,77.6,29.96,SW,225,0.0,0.0,85,0.00,,,0.00,Wunderground v.1.15,2013-08-13 05:54:00,
2013-08-13 02:00:00,82.6,77.6,29.96,SW,225,0.0,0.0,85,0.00,,,0.00,Wunderground v.1.15,2013-08-13 06:00:00,
2013-08-13 02:05:00,82.6,78.0,29.96,SW,225,0.0,0.0,86,0.00,,,0.00,Wunderground v.1.15,2013-08-13 06:05:00,
2013-08-13 02:10:00,82.6,78.0,29.96,SW,225,0.0,1.0,86,0.00,,,0.00,Wunderground v.1.15,2013-08-13 06:10:00,
2013-08-13 02:15:00,82.6,77.6,29.96,SSW,194,0.0,1.0,85,0.00,,,0.00,Wunderground v.1.15,2013-08-13 06:15:00,
2013-08-13 02:20:00,82.6,77.3,29.96,SSW,194,0.0,1.0,84,0.00,,,0.00,Wunderground v.1.15,2013-08-13 06:20:00,
2013-08-13 02:25:00,82.6,77.3,29.96,WSW,243,0.0,3.0,84,0.00,,,0.00,Wunderground v.1.15,2013-08-13 06:25:00,
2013-08-13 02:30:00,82.6,77.3,29.95,WSW,243,0.0,1.0,84,0.00,,,0.00,Wunderground v.1.15,2013-08-13 06:30:00,
2013-08-13 02:35:00,82.6,77.3,29.95,WSW,252,0.0,1.0,84,0.00,,,0.00,Wunderground v.1.15,2013-08-13 06:35:00,
2013-08-13 02:40:00,82.6,77.3,29.95,WSW,252,0.0,0.0,84,0.00,,,0.00,Wunderground v.1.15,2013-08-13 06:40:00,
2013-08-13 02:45:00,82.6,77.6,29.95,WSW,252,0.0,0.0,85,0.00,,,0.00,Wunderground v.1.15,2013-08-13 06:45:00,
2013-08-13 02:50:00,82.6,77.6,29.95,WSW,252,0.0,0.0,85,0.00,,,0.00,Wunderground v.1.15,2013-08-13 06:50:00,
2013-08-13 02:55:00,82.6,78.0,29.95,WSW,252,0.0,1.0,86,0.00,,,0.00,Wunderground v.1.15,2013-08-13 06:55:00,
2013-08-13 03:00:00,82.6,78.0,29.94,WSW,252,0.0,0.0,86,0.00,,,0.00,Wunderground v.1.15,2013-08-13 07:00:00,
2013-08-13 03:05:00,82.6,78.0,29.94,WSW,252,0.0,1.0,86,0.00,,,0.00,Wunderground v.1.15,2013-08-13 07:05:00,
2013-08-13 03:10:00,82.6,78.3,29.94,West,269,0.0,0.0,87,0.00,,,0.00,Wunderground v.1.15,2013-08-13 07:10:00,
2013-08-13 03:15:00,82.6,78.3,29.94,West,269,0.0,0.0,87,0.00,,,0.00,Wunderground v.1.15,2013-08-13 07:15:00,
2013-08-13 03:20:00,82.6,78.3,29.94,West,262,0.0,0.0,87,0.00,,,0.00,Wunderground v.1.15,2013-08-13 07:20:00,
2013-08-13 03:26:00,82.6,78.7,29.94,West,262,0.0,0.0,88,0.00,,,0.00,Wunderground v.1.15,2013-08-13 07:26:00,
2013-08-13 03:31:00,82.6,78.7,29.93,West,262,0.0,0.0,88,0.00,,,0.00,Wunderground v.1.15,2013-08-13 07:31:00,
2013-08-13 03:36:00,82.6,79.0,29.93,West,262,0.0,0.0,89,0.00,,,0.00,Wunderground v.1.15,2013-08-13 07:36:00,
2013-08-13 03:41:00,82.6,79.0,29.93,West,262,0.0,0.0,89,0.00,,,0.00,Wunderground v.1.15,2013-08-13 07:41:00,
2013-08-13 03:46:00,82.6,79.0,29.93,West,262,0.0,0.0,89,0.00,,,0.00,Wunderground v.1.15,2013-08-13 07:46:00,
2013-08-13 03:51:00,82.6,79.0,29.93,West,262,0.0,0.0,89,0.00,,,0.00,Wunderground v.1.15,2013-08-13 07:51:00,
2013-08-13 03:56:00,82.4,78.8,29.93,West,262,0.0,0.0,89,0.00,,,0.00,Wunderground v.1.15,2013-08-13 07:56:00,
2013-08-13 04:01:00,82.4,78.8,29.93,West,262,0.0,0.0,89,0.00,,,0.00,Wunderground v.1.15,2013-08-13 08:01:00,
2013-08-13 04:06:00,82.4,78.8,29.93,West,262,0.0,0.0,89,0.00,,,0.00,Wunderground v.1.15,2013-08-13 08:06:00,
2013-08-13 04:11:00,82.4,79.2,29.93,West,262,0.0,0.0,90,0.00,,,0.00,Wunderground v.1.15,2013-08-13 08:11:00,
2013-08-13 04:16:00,82.2,79.0,29.93,West,262,0.0,0.0,90,0.00,,,0.00,Wunderground v.1.15,2013-08-13 08:16:00,
2013-08-13 04:21:00,82.2,79.0,29.93,West,262,0.0,0.0,90,0.00,,,0.00,Wunderground v.1.15,2013-08-13 08:21:00,
2013-08-13 04:26:00,82.2,79.0,29.93,West,262,0.0,0.0,90,0.00,,,0.00,Wunderground v.1.15,2013-08-13 08:26:00,
2013-08-13 04:31:00,82.0,78.8,29.94,West,262,0.0,0.0,90,0.00,,,0.00,Wunderground v.1.15,2013-08-13 08:31:00,
2013-08-13 04:36:00,82.0,78.4,29.94,West,262,0.0,0.0,89,0.00,,,0.00,Wunderground v.1.15,2013-08-13 08:36:00,
2013-08-13 04:41:00,81.8,78.2,29.94,West,262,0.0,0.0,89,0.00,,,0.00,Wunderground v.1.15,2013-08-13 08:41:00,
2013-08-13 04:46:00,81.6,77.4,29.95,WSW,248,0.0,0.0,87,0.00,,,0.00,Wunderground v.1.15,2013-08-13 08:46:00,
2013-08-13 04:51:00,81.4,77.2,29.95,WSW,248,0.0,0.0,87,0.00,,,0.00,Wunderground v.1.15,2013-08-13 08:51:00,
2013-08-13 04:56:00,81.4,76.8,29.95,WSW,248,0.0,0.0,86,0.00,,,0.00,Wunderground v.1.15,2013-08-13 08:56:00,
2013-08-13 05:01:00,81.4,76.8,29.95,WSW,248,0.0,0.0,86,0.00,,,0.00,Wunderground v.1.15,2013-08-13 09:01:00,
2013-08-13 05:06:00,81.2,76.3,29.95,WSW,248,0.0,0.0,85,0.00,,,0.00,Wunderground v.1.15,2013-08-13 09:06:00,
2013-08-13 05:11:00,81.2,75.9,29.95,WSW,248,0.0,0.0,84,0.00,,,0.00,Wunderground v.1.15,2013-08-13 09:11:00,
2013-08-13 05:16:00,81.1,75.8,29.94,WSW,248,0.0,0.0,84,0.00,,,0.00,Wunderground v.1.15,2013-08-13 09:16:00,
2013-08-13 05:21:00,81.1,75.4,29.94,West,270,0.0,1.0,83,0.00,,,0.00,Wunderground v.1.15,2013-08-13 09:21:00,
2013-08-13 05:26:00,80.9,75.2,29.94,SW,236,0.0,1.0,83,0.00,,,0.00,Wunderground v.1.15,2013-08-13 09:26:00,
2013-08-13 05:31:00,80.7,75.8,29.94,SW,236,0.0,0.0,85,0.00,,,0.00,Wunderground v.1.15,2013-08-13 09:31:00,
2013-08-13 05:36:00,80.3,75.7,29.94,NNW,335,0.0,1.0,86,0.00,,,0.00,Wunderground v.1.15,2013-08-13 09:36:00,
2013-08-13 05:41:00,79.8,75.2,29.94,NNW,335,0.0,0.0,86,0.00,,,0.00,Wunderground v.1.15,2013-08-13 09:41:00,
2013-08-13 05:46:00,79.4,75.2,29.94,NNW,335,0.0,0.0,87,0.00,,,0.00,Wunderground v.1.15,2013-08-13 09:46:00,
2013-08-13 05:51:00,79.2,75.3,29.94,NNW,335,0.0,0.0,88,0.00,,,0.01,Wunderground v.1.15,2013-08-13 09:51:00,
2013-08-13 05:56:00,79.2,75.7,29.94,NNW,335,0.0,0.0,89,0.00,,,0.01,Wunderground v.1.15,2013-08-13 09:56:00,
2013-08-13 06:01:00,79.2,75.7,29.93,NNW,335,0.0,0.0,89,0.00,,,0.01,Wunderground v.1.15,2013-08-13 10:01:00,
2013-08-13 06:06:00,79.0,75.5,29.93,NNW,335,0.0,0.0,89,0.00,,,0.01,Wunderground v.1.15,2013-08-13 10:06:00,
2013-08-13 06:11:00,78.8,75.6,29.93,NNW,335,0.0,0.0,90,0.00,,,0.01,Wunderground v.1.15,2013-08-13 10:11:00,
2013-08-13 06:16:00,78.8,75.9,29.94,NNW,335,0.0,0.0,91,0.00,,,0.01,Wunderground v.1.15,2013-08-13 10:16:00,
2013-08-13 06:21:00,78.6,75.8,29.94,NNW,335,0.0,0.0,91,0.00,,,0.01,Wunderground v.1.15,2013-08-13 10:21:00,
2013-08-13 06:26:00,78.6,75.8,29.94,NNW,335,0.0,0.0,91,0.00,,,0.01,Wunderground v.1.15,2013-08-13 10:26:00,
2013-08-13 06:31:00,78.5,75.7,29.94,NNW,335,0.0,0.0,91,0.00,,,0.01,Wunderground v.1.15,2013-08-13 10:31:00,
2013-08-13 06:36:00,78.5,75.7,29.94,NNW,335,0.0,0.0,91,0.00,,,0.01,Wunderground v.1.15,2013-08-13 10:36:00,
2013-08-13 06:41:00,78.3,75.8,29.94,NNW,335,0.0,0.0,92,0.00,,,0.01,Wunderground v.1.15,2013-08-13 10:41:00,
2013-08-13 06:46:00,78.3,75.8,29.94,NNW,335,0.0,0.0,92,0.00,,,0.01,Wunderground v.1.15,2013-08-13 10:46:00,
2013-08-13 06:51:00,78.3,75.8,29.94,NNW,335,0.0,0.0,92,0.00,,,0.01,Wunderground v.1.15,2013-08-13 10:51:00,
2013-08-13 06:56:00,78.3,75.8,29.94,NNW,335,0.0,0.0,92,0.00,,,0.01,Wunderground v.1.15,2013-08-13 10:56:00,
2013-08-13 07:01:00,78.3,76.1,29.93,NNW,335,0.0,0.0,93,0.00,,,0.01,Wunderground v.1.15,2013-08-13 11:01:00,
2013-08-13 07:06:00,78.1,75.9,29.93,NNW,335,0.0,0.0,93,0.00,,,0.01,Wunderground v.1.15,2013-08-13 11:06:00,
2013-08-13 07:12:00,78.1,75.9,29.93,NNW,335,0.0,0.0,93,0.00,,,0.01,Wunderground v.1.15,2013-08-13 11:12:00,
2013-08-13 07:17:00,78.1,76.2,29.93,NNW,335,0.0,0.0,94,0.00,,,0.01,Wunderground v.1.15,2013-08-13 11:17:00,
2013-08-13 07:22:00,78.1,76.2,29.93,NNW,335,0.0,0.0,94,0.00,,,0.01,Wunderground v.1.15,2013-08-13 11:22:00,
2013-08-13 07:27:00,78.3,76.4,29.93,NNW,335,0.0,0.0,94,0.00,,,0.01,Wunderground v.1.15,2013-08-13 11:27:00,
2013-08-13 07:32:00,78.3,76.7,29.94,NNW,335,0.0,0.0,95,0.00,,,0.01,Wunderground v.1.15,2013-08-13 11:32:00,
2013-08-13 07:37:00,78.3,76.7,29.94,NNW,335,0.0,0.0,95,0.00,,,0.01,Wunderground v.1.15,2013-08-13 11:37:00,
2013-08-13 07:42:00,78.5,76.9,29.94,NNW,335,0.0,0.0,95,0.00,,,0.01,Wunderground v.1.15,2013-08-13 11:42:00,
2013-08-13 07:47:00,78.6,77.0,29.93,NNW,335,0.0,0.0,95,0.00,,,0.01,Wunderground v.1.15,2013-08-13 11:47:00,
2013-08-13 07:52:00,78.6,77.0,29.93,NNW,335,0.0,0.0,95,0.00,,,0.01,Wunderground v.1.15,2013-08-13 11:52:00,
2013-08-13 07:57:00,78.8,77.2,29.93,NNW,335,0.0,0.0,95,0.00,,,0.01,Wunderground v.1.15,2013-08-13 11:57:00,
2013-08-13 08:02:00,78.8,76.9,29.93,NNW,335,0.0,0.0,94,0.00,,,0.01,Wunderground v.1.15,2013-08-13 12:02:00,
2013-08-13 08:07:00,79.0,77.1,29.93,NNW,335,0.0,0.0,94,0.00,,,0.01,Wunderground v.1.15,2013-08-13 12:07:00,
2013-08-13 08:12:00,79.0,77.1,29.93,NNW,335,0.0,0.0,94,0.00,,,0.01,Wunderground v.1.15,2013-08-13 12:12:00,
2013-08-13 08:17:00,79.2,77.3,29.93,NNW,335,0.0,0.0,94,0.00,,,0.01,Wunderground v.1.15,2013-08-13 12:17:00,
2013-08-13 08:22:00,79.6,77.4,29.93,NNW,335,0.0,0.0,93,0.00,,,0.01,Wunderground v.1.15,2013-08-13 12:22:00,
2013-08-13 08:27:00,79.9,77.7,29.93,NNW,335,0.0,0.0,93,0.00,,,0.01,Wunderground v.1.15,2013-08-13 12:27:00,
2013-08-13 08:32:00,80.3,77.8,29.94,NNW,335,0.0,0.0,92,0.00,,,0.01,Wunderground v.1.15,2013-08-13 12:32:00,
2013-08-13 08:37:00,80.7,78.2,29.94,NNW,335,0.0,0.0,92,0.00,,,0.01,Wunderground v.1.15,2013-08-13 12:37:00,
2013-08-13 08:42:00,81.2,78.7,29.94,NNW,335,0.0,0.0,92,0.00,,,0.01,Wunderground v.1.15,2013-08-13 12:42:00,
2013-08-13 08:47:00,81.4,78.5,29.93,West,262,0.0,1.0,91,0.00,,,0.01,Wunderground v.1.15,2013-08-13 12:47:00,
2013-08-13 08:52:00,81.8,78.2,29.93,West,262,0.0,0.0,89,0.00,,,0.01,Wunderground v.1.15,2013-08-13 12:52:00,
2013-08-13 08:57:00,82.0,78.4,29.93,West,262,0.0,0.0,89,0.00,,,0.01,Wunderground v.1.15,2013-08-13 12:57:00,
2013-08-13 09:02:00,82.2,78.3,29.94,West,262,0.0,0.0,88,0.00,,,0.01,Wunderground v.1.15,2013-08-13 13:02:00,
2013-08-13 09:07:00,82.6,78.0,29.94,West,262,0.0,1.0,86,0.00,,,0.01,Wunderground v.1.15,2013-08-13 13:07:00,
2013-08-13 09:12:00,83.0,78.4,29.94,West,262,0.0,0.0,86,0.00,,,0.01,Wunderground v.1.15,2013-08-13 13:12:00,
2013-08-13 09:17:00,83.2,77.9,29.94,WSW,252,0.0,3.0,84,0.00,,,0.01,Wunderground v.1.15,2013-08-13 13:17:00,
2013-08-13 09:22:00,83.6,77.5,29.94,WSW,252,0.0,1.0,82,0.00,,,0.01,Wunderground v.1.15,2013-08-13 13:22:00,
2013-08-13 09:27:00,84.0,77.9,29.94,SW,235,0.0,2.0,82,0.00,,,0.01,Wunderground v.1.15,2013-08-13 13:27:00,
2013-08-13 09:32:00,84.5,78.4,29.93,SW,235,0.0,0.0,82,0.00,,,0.01,Wunderground v.1.15,2013-08-13 13:32:00,
2013-08-13 09:37:00,84.7,78.2,29.93,SW,235,1.0,2.0,81,0.00,,,0.01,Wunderground v.1.15,2013-08-13 13:37:00,
2013-08-13 09:42:00,84.7,77.5,29.93,West,279,2.0,2.0,79,0.00,,,0.01,Wunderground v.1.15,2013-08-13 13:42:00,
2013-08-13 09:47:00,85.1,77.8,29.94,West,279,0.0,2.0,79,0.00,,,0.01,Wunderground v.1.15,2013-08-13 13:47:00,
2013-08-13 09:53:00,85.3,78.0,29.94,WSW,245,0.0,1.0,79,0.00,,,0.01,Wunderground v.1.15,2013-08-13 13:53:00,
2013-08-13 09:58:00,85.3,77.7,29.94,WSW,245,0.0,2.0,78,0.00,,,0.01,Wunderground v.1.15,2013-08-13 13:58:00,
2013-08-13 10:03:00,85.5,78.2,29.94,WSW,245,0.0,1.0,79,0.00,,,0.01,Wunderground v.1.15,2013-08-13 14:03:00,
2013-08-13 10:08:00,85.7,78.0,29.94,WSW,245,1.0,1.0,78,0.00,,,0.01,Wunderground v.1.15,2013-08-13 14:08:00,
2013-08-13 10:13:00,85.9,78.6,29.94,WSW,245,0.0,1.0,79,0.00,,,0.01,Wunderground v.1.15,2013-08-13 14:13:00,
2013-08-13 10:18:00,86.3,78.6,29.94,WSW,245,0.0,1.0,78,0.00,,,0.01,Wunderground v.1.15,2013-08-13 14:18:00,
2013-08-13 10:23:00,86.5,78.8,29.94,WSW,245,0.0,1.0,78,0.00,,,0.01,Wunderground v.1.15,2013-08-13 14:23:00,
2013-08-13 10:28:00,86.7,78.6,29.94,WSW,245,0.0,1.0,77,0.00,,,0.01,Wunderground v.1.15,2013-08-13 14:28:00,
2013-08-13 10:33:00,87.0,78.9,29.94,WSW,245,0.0,0.0,77,0.00,,,0.01,Wunderground v.1.15,2013-08-13 14:33:00,
2013-08-13 10:38:00,87.2,78.7,29.94,WSW,245,0.0,1.0,76,0.00,,,0.01,Wunderground v.1.15,2013-08-13 14:38:00,
2013-08-13 10:43:00,87.4,78.5,29.94,WSW,245,0.0,2.0,75,0.00,,,0.01,Wunderground v.1.15,2013-08-13 14:43:00,
2013-08-13 10:48:00,87.4,78.5,29.94,WSW,245,0.0,2.0,75,0.00,,,0.01,Wunderground v.1.15,2013-08-13 14:48:00,
2013-08-13 10:53:00,87.6,78.7,29.94,WSW,245,1.0,1.0,75,0.00,,,0.01,Wunderground v.1.15,2013-08-13 14:53:00,
2013-08-13 10:58:00,87.8,77.6,29.94,WSW,245,0.0,1.0,72,0.00,,,0.01,Wunderground v.1.15,2013-08-13 14:58:00,
2013-08-13 11:03:00,88.2,78.4,29.94,NNW,335,0.0,1.0,73,0.00,,,0.01,Wunderground v.1.15,2013-08-13 15:03:00,
2013-08-13 11:08:00,88.6,78.4,29.94,WNW,297,0.0,1.0,72,0.00,,,0.01,Wunderground v.1.15,2013-08-13 15:08:00,
2013-08-13 11:13:00,88.8,78.2,29.94,West,267,0.0,2.0,71,0.00,,,0.01,Wunderground v.1.15,2013-08-13 15:13:00,
2013-08-13 11:18:00,88.8,77.7,29.93,WSW,243,1.0,2.0,70,0.00,,,0.01,Wunderground v.1.15,2013-08-13 15:18:00,
2013-08-13 11:23:00,89.3,78.7,29.93,WSW,241,1.0,1.0,71,0.00,,,0.01,Wunderground v.1.15,2013-08-13 15:23:00,
2013-08-13 11:28:00,89.5,78.4,29.93,WSW,241,0.0,2.0,70,0.00,,,0.01,Wunderground v.1.15,2013-08-13 15:28:00,
2013-08-13 11:33:00,89.7,78.6,29.93,WSW,241,0.0,1.0,70,0.00,,,0.01,Wunderground v.1.15,2013-08-13 15:33:00,
2013-08-13 11:38:00,89.7,77.7,29.93,WSW,241,0.0,3.0,68,0.00,,,0.01,Wunderground v.1.15,2013-08-13 15:38:00,
2013-08-13 11:43:00,90.1,77.7,29.93,WSW,241,0.0,1.0,67,0.00,,,0.01,Wunderground v.1.15,2013-08-13 15:43:00,
2013-08-13 11:48:00,90.3,78.3,29.93,WSW,241,0.0,1.0,68,0.00,,,0.01,Wunderground v.1.15,2013-08-13 15:48:00,
2013-08-13 11:53:00,90.5,77.6,29.93,WSW,241,1.0,1.0,66,0.00,,,0.01,Wunderground v.1.15,2013-08-13 15:53:00,
2013-08-13 11:58:00,90.7,76.8,29.93,SW,233,0.0,5.0,64,0.00,,,0.01,Wunderground v.1.15,2013-08-13 15:58:00,
2013-08-13 12:04:00,90.7,76.8,29.93,WSW,243,2.0,2.0,64,0.00,,,0.01,Wunderground v.1.15,2013-08-13 16:04:00,
2013-08-13 12:09:00,91.0,76.7,29.93,WSW,243,2.0,2.0,63,0.00,,,0.01,Wunderground v.1.15,2013-08-13 16:09:00,
2013-08-13 12:14:00,90.7,76.8,29.93,WSW,243,0.0,1.0,64,0.00,,,0.01,Wunderground v.1.15,2013-08-13 16:14:00,
2013-08-13 12:19:00,90.7,76.4,29.92,WSW,242,3.0,3.0,63,0.00,,,0.01,Wunderground v.1.15,2013-08-13 16:19:00,
2013-08-13 12:24:00,90.7,75.9,29.92,WSW,255,2.0,2.0,62,0.00,,,0.01,Wunderground v.1.15,2013-08-13 16:24:00,
2013-08-13 12:29:00,91.0,76.2,29.92,WSW,242,1.0,5.0,62,0.00,,,0.01,Wunderground v.1.15,2013-08-13 16:29:00,
2013-08-13 12:34:00,91.2,75.9,29.92,West,266,3.0,3.0,61,0.00,,,0.01,Wunderground v.1.15,2013-08-13 16:34:00,
2013-08-13 12:39:00,91.2,75.9,29.92,WSW,242,2.0,5.0,61,0.00,,,0.01,Wunderground v.1.15,2013-08-13 16:39:00,
2013-08-13 12:44:00,91.2,76.4,29.91,WSW,246,0.0,5.0,62,0.00,,,0.01,Wunderground v.1.15,2013-08-13 16:44:00,
2013-08-13 12:49:00,91.0,76.7,29.91,WSW,246,1.0,5.0,63,0.00,,,0.01,Wunderground v.1.15,2013-08-13 16:49:00,
2013-08-13 12:54:00,90.7,76.8,29.91,WSW,246,1.0,1.0,64,0.00,,,0.01,Wunderground v.1.15,2013-08-13 16:54:00,
2013-08-13 12:59:00,91.0,76.2,29.90,WSW,252,2.0,2.0,62,0.00,,,0.01,Wunderground v.1.15,2013-08-13 16:59:00,
2013-08-13 13:04:00,91.0,76.7,29.90,SW,225,0.0,2.0,63,0.00,,,0.01,Wunderground v.1.15,2013-08-13 17:04:00,
2013-08-13 13:12:00,91.0,76.7,29.90,WSW,252,0.0,1.0,63,0.00,,,0.01,Wunderground v.1.15,2013-08-13 17:12:00,
2013-08-13 13:17:00,91.2,77.3,29.89,WSW,252,0.0,1.0,64,0.00,,,0.01,Wunderground v.1.15,2013-08-13 17:17:00,
2013-08-13 13:22:00,91.2,76.4,29.89,WSW,252,2.0,3.0,62,0.00,,,0.01,Wunderground v.1.15,2013-08-13 17:22:00,
2013-08-13 13:27:00,91.4,75.6,29.89,WSW,246,2.0,3.0,60,0.00,,,0.01,Wunderground v.1.15,2013-08-13 17:27:00,
2013-08-13 13:32:00,91.2,74.9,29.89,WSW,248,1.0,3.0,59,0.00,,,0.01,Wunderground v.1.15,2013-08-13 17:32:00,
2013-08-13 13:37:00,91.6,76.2,29.89,WSW,249,3.0,3.0,61,0.00,,,0.01,Wunderground v.1.15,2013-08-13 17:37:00,
2013-08-13 13:42:00,91.8,76.4,29.89,WSW,248,2.0,2.0,61,0.00,,,0.01,Wunderground v.1.15,2013-08-13 17:42:00,
2013-08-13 13:47:00,92.1,76.2,29.88,WSW,249,0.0,3.0,60,0.00,,,0.01,Wunderground v.1.15,2013-08-13 17:47:00,
2013-08-13 13:52:00,92.5,75.6,29.88,SSW,207,1.0,2.0,58,0.00,,,0.01,Wunderground v.1.15,2013-08-13 17:52:00,
2013-08-13 13:58:00,92.7,76.3,29.88,SW,229,0.0,2.0,59,0.00,,,0.01,Wunderground v.1.15,2013-08-13 17:58:00,
2013-08-13 14:03:00,92.9,75.9,29.88,WSW,248,1.0,5.0,58,0.00,,,0.01,Wunderground v.1.15,2013-08-13 18:03:00,
2013-08-13 14:08:00,92.9,75.9,29.88,WSW,250,1.0,5.0,58,0.00,,,0.01,Wunderground v.1.15,2013-08-13 18:08:00,
2013-08-13 14:13:00,93.2,75.2,29.88,SW,232,2.0,6.0,56,0.00,,,0.01,Wunderground v.1.15,2013-08-13 18:13:00,
2013-08-13 14:18:00,93.2,75.7,29.87,WSW,248,0.0,6.0,57,0.00,,,0.01,Wunderground v.1.15,2013-08-13 18:18:00,
2013-08-13 14:23:00,93.2,76.2,29.87,WSW,248,0.0,1.0,58,0.00,,,0.01,Wunderground v.1.15,2013-08-13 18:23:00,
2013-08-13 14:28:00,92.9,75.9,29.87,WSW,248,0.0,3.0,58,0.00,,,0.01,Wunderground v.1.15,2013-08-13 18:28:00,
2013-08-13 14:33:00,93.2,76.2,29.86,WSW,241,1.0,1.0,58,0.00,,,0.01,Wunderground v.1.15,2013-08-13 18:33:00,
2013-08-13 14:38:00,93.2,76.2,29.86,WSW,238,3.0,3.0,58,0.00,,,0.01,Wunderground v.1.15,2013-08-13 18:38:00,
2013-08-13 14:43:00,92.9,74.9,29.86,WSW,252,2.0,4.0,56,0.00,,,0.01,Wunderground v.1.15,2013-08-13 18:43:00,
2013-08-13 14:48:00,93.2,76.2,29.86,WSW,252,2.0,4.0,58,0.00,,,0.01,Wunderground v.1.15,2013-08-13 18:48:00,
2013-08-13 14:53:00,92.9,75.4,29.86,WSW,249,3.0,5.0,57,0.00,,,0.01,Wunderground v.1.15,2013-08-13 18:53:00,
2013-08-13 14:58:00,93.2,78.2,29.86,WSW,241,0.0,5.0,62,0.00,,,0.01,Wunderground v.1.15,2013-08-13 18:58:00,
2013-08-13 15:03:00,92.9,78.4,29.85,WSW,246,0.0,1.0,63,0.00,,,0.01,Wunderground v.1.15,2013-08-13 19:03:00,
2013-08-13 15:08:00,92.7,78.3,29.85,WSW,245,0.0,2.0,63,0.00,,,0.01,Wunderground v.1.15,2013-08-13 19:08:00,
2013-08-13 15:13:00,92.5,78.5,29.85,WSW,243,0.0,1.0,64,0.00,,,0.01,Wunderground v.1.15,2013-08-13 19:13:00,
2013-08-13 15:18:00,92.3,78.8,29.85,WSW,253,2.0,3.0,65,0.00,,,0.01,Wunderground v.1.15,2013-08-13 19:18:00,
2013-08-13 15:23:00,92.1,78.6,29.85,WSW,253,0.0,3.0,65,0.00,,,0.01,Wunderground v.1.15,2013-08-13 19:23:00,
2013-08-13 15:28:00,91.8,78.8,29.85,WSW,255,1.0,3.0,66,0.00,,,0.01,Wunderground v.1.15,2013-08-13 19:28:00,
2013-08-13 15:34:00,91.8,79.3,29.85,ENE,65,0.0,2.0,67,0.00,,,0.01,Wunderground v.1.15,2013-08-13 19:34:00,
2013-08-13 15:39:00,92.1,79.6,29.85,WSW,255,0.0,2.0,67,0.00,,,0.01,Wunderground v.1.15,2013-08-13 19:39:00,
2013-08-13 15:44:00,92.3,79.8,29.84,WSW,255,0.0,1.0,67,0.00,,,0.01,Wunderground v.1.15,2013-08-13 19:44:00,
2013-08-13 15:49:00,92.3,80.2,29.84,WSW,245,1.0,3.0,68,0.00,,,0.01,Wunderground v.1.15,2013-08-13 19:49:00,
2013-08-13 15:54:00,92.3,78.8,29.84,WSW,252,1.0,3.0,65,0.00,,,0.01,Wunderground v.1.15,2013-08-13 19:54:00,
2013-08-13 15:59:00,91.8,79.3,29.84,WSW,252,1.0,3.0,67,0.00,,,0.01,Wunderground v.1.15,2013-08-13 19:59:00,
2013-08-13 16:04:00,91.6,79.5,29.84,NW,307,0.0,2.0,68,0.00,,,0.01,Wunderground v.1.15,2013-08-13 20:04:00,
2013-08-13 16:09:00,91.6,80.0,29.84,WNW,298,0.0,3.0,69,0.00,,,0.01,Wunderground v.1.15,2013-08-13 20:09:00,
2013-08-13 16:14:00,91.6,79.5,29.84,WSW,250,0.0,2.0,68,0.00,,,0.01,Wunderground v.1.15,2013-08-13 20:14:00,
2013-08-13 16:19:00,91.4,79.8,29.84,WSW,250,0.0,3.0,69,0.00,,,0.01,Wunderground v.1.15,2013-08-13 20:19:00,
2013-08-13 16:24:00,91.4,79.3,29.84,West,259,2.0,3.0,68,0.00,,,0.01,Wunderground v.1.15,2013-08-13 20:24:00,
2013-08-13 16:29:00,91.2,79.6,29.84,WSW,246,0.0,5.0,69,0.00,,,0.01,Wunderground v.1.15,2013-08-13 20:29:00,
2013-08-13 16:34:00,91.2,79.6,29.84,WSW,246,1.0,3.0,69,0.00,,,0.01,Wunderground v.1.15,2013-08-13 20:34:00,
2013-08-13 16:39:00,91.2,79.6,29.84,WSW,249,0.0,3.0,69,0.00,,,0.01,Wunderground v.1.15,2013-08-13 20:39:00,
2013-08-13 16:44:00,91.0,79.8,29.83,WSW,248,3.0,4.0,70,0.00,,,0.01,Wunderground v.1.15,2013-08-13 20:44:00,
2013-08-13 16:49:00,91.0,79.4,29.83,WSW,245,2.0,5.0,69,0.00,,,0.01,Wunderground v.1.15,2013-08-13 20:49:00,
2013-08-13 16:54:00,90.7,79.6,29.83,SW,225,0.0,2.0,70,0.00,,,0.01,Wunderground v.1.15,2013-08-13 20:54:00,
2013-08-13 16:59:00,90.7,80.0,29.83,ESE,104,1.0,3.0,71,0.00,,,0.01,Wunderground v.1.15,2013-08-13 20:59:00,
2013-08-13 17:04:00,90.3,79.2,29.83,WSW,256,1.0,4.0,70,0.00,,,0.01,Wunderground v.1.15,2013-08-13 21:04:00,
2013-08-13 17:09:00,90.1,79.4,29.83,WSW,242,0.0,6.0,71,0.00,,,0.01,Wunderground v.1.15,2013-08-13 21:09:00,
2013-08-13 17:14:00,89.9,79.2,29.83,WSW,252,0.0,3.0,71,0.00,,,0.01,Wunderground v.1.15,2013-08-13 21:14:00,
2013-08-13 17:19:00,90.1,79.4,29.83,WSW,250,0.0,3.0,71,0.00,,,0.01,Wunderground v.1.15,2013-08-13 21:19:00,
2013-08-13 17:24:00,90.1,79.0,29.83,SE,126,1.0,6.0,70,0.00,,,0.01,Wunderground v.1.15,2013-08-13 21:24:00,
2013-08-13 17:29:00,90.1,79.4,29.83,SW,232,0.0,6.0,71,0.00,,,0.01,Wunderground v.1.15,2013-08-13 21:29:00,
2013-08-13 17:34:00,90.1,79.0,29.83,WSW,252,2.0,3.0,70,0.00,,,0.01,Wunderground v.1.15,2013-08-13 21:34:00,
2013-08-13 17:39:00,90.1,79.4,29.83,WSW,250,0.0,3.0,71,0.00,,,0.01,Wunderground v.1.15,2013-08-13 21:39:00,
2013-08-13 17:45:00,89.9,79.2,29.84,WSW,253,0.0,3.0,71,0.00,,,0.01,Wunderground v.1.15,2013-08-13 21:45:00,
2013-08-13 17:50:00,89.7,79.0,29.84,WSW,245,0.0,0.0,71,0.00,,,0.01,Wunderground v.1.15,2013-08-13 21:50:00,
2013-08-13 17:55:00,89.7,79.5,29.84,WSW,245,0.0,2.0,72,0.00,,,0.01,Wunderground v.1.15,2013-08-13 21:55:00,
2013-08-13 18:00:00,89.3,79.1,29.83,WSW,253,0.0,0.0,72,0.00,,,0.01,Wunderground v.1.15,2013-08-13 22:00:00,
2013-08-13 18:05:00,89.3,79.5,29.83,WSW,243,1.0,5.0,73,0.00,,,0.01,Wunderground v.1.15,2013-08-13 22:05:00,
2013-08-13 18:10:00,89.0,79.2,29.83,WSW,243,0.0,1.0,73,0.00,,,0.01,Wunderground v.1.15,2013-08-13 22:10:00,
2013-08-13 18:15:00,89.0,79.2,29.83,WSW,248,0.0,2.0,73,0.00,,,0.01,Wunderground v.1.15,2013-08-13 22:15:00,
2013-08-13 18:20:00,88.8,79.8,29.83,WSW,246,0.0,1.0,75,0.00,,,0.01,Wunderground v.1.15,2013-08-13 22:20:00,
2013-08-13 18:25:00,88.6,79.7,29.83,WSW,246,1.0,1.0,75,0.00,,,0.01,Wunderground v.1.15,2013-08-13 22:25:00,
2013-08-13 18:30:00,88.6,79.7,29.82,WSW,246,0.0,0.0,75,0.00,,,0.01,Wunderground v.1.15,2013-08-13 22:30:00,
2013-08-13 18:35:00,88.4,79.5,29.82,SW,233,0.0,3.0,75,0.00,,,0.01,Wunderground v.1.15,2013-08-13 22:35:00,
2013-08-13 18:40:00,88.4,79.9,29.82,SW,225,2.0,2.0,76,0.00,,,0.01,Wunderground v.1.15,2013-08-13 22:40:00,
2013-08-13 18:45:00,88.2,79.3,29.82,ENE,58,1.0,3.0,75,0.00,,,0.01,Wunderground v.1.15,2013-08-13 22:45:00,
2013-08-13 18:50:00,88.0,79.5,29.82,West,266,1.0,2.0,76,0.00,,,0.01,Wunderground v.1.15,2013-08-13 22:50:00,
2013-08-13 18:55:00,87.8,79.3,29.82,West,266,0.0,2.0,76,0.00,,,0.01,Wunderground v.1.15,2013-08-13 22:55:00,
2013-08-13 19:01:00,87.6,79.1,29.83,WSW,245,0.0,1.0,76,0.00,,,0.01,Wunderground v.1.15,2013-08-13 23:01:00,
2013-08-13 19:06:00,87.4,78.9,29.83,WNW,287,2.0,3.0,76,0.00,,,0.01,Wunderground v.1.15,2013-08-13 23:06:00,
2013-08-13 19:11:00,87.2,79.1,29.83,WSW,241,0.0,1.0,77,0.00,,,0.01,Wunderground v.1.15,2013-08-13 23:11:00,
2013-08-13 19:16:00,87.0,79.3,29.82,WSW,241,0.0,2.0,78,0.00,,,0.01,Wunderground v.1.15,2013-08-13 23:16:00,
2013-08-13 19:21:00,86.7,78.6,29.82,WSW,243,0.0,3.0,77,0.00,,,0.01,Wunderground v.1.15,2013-08-13 23:21:00,
2013-08-13 19:26:00,86.5,78.8,29.82,WSW,245,2.0,3.0,78,0.00,,,0.01,Wunderground v.1.15,2013-08-13 23:26:00,
2013-08-13 19:31:00,86.3,78.6,29.82,SW,232,0.0,2.0,78,0.00,,,0.01,Wunderground v.1.15,2013-08-13 23:31:00,
2013-08-13 19:36:00,86.3,78.6,29.82,SW,233,0.0,2.0,78,0.00,,,0.01,Wunderground v.1.15,2013-08-13 23:36:00,
2013-08-13 19:41:00,86.1,78.4,29.82,SW,233,0.0,0.0,78,0.00,,,0.01,Wunderground v.1.15,2013-08-13 23:41:00,
2013-08-13 19:46:00,85.9,78.6,29.82,SW,226,0.0,0.0,79,0.00,,,0.01,Wunderground v.1.15,2013-08-13 23:46:00,
2013-08-13 19:51:00,85.9,78.6,29.82,SW,226,0.0,1.0,79,0.00,,,0.01,Wunderground v.1.15,2013-08-13 23:51:00,
2013-08-13 19:56:00,85.7,78.4,29.82,SW,226,0.0,1.0,79,0.00,,,0.01,Wunderground v.1.15,2013-08-13 23:56:00,
2013-08-13 20:01:00,85.5,78.2,29.83,SW,226,0.0,0.0,79,0.00,,,0.01,Wunderground v.1.15,2013-08-14 00:01:00,
2013-08-13 20:06:00,85.5,78.6,29.83,West,276,0.0,0.0,80,0.00,,,0.01,Wunderground v.1.15,2013-08-14 00:06:00,
2013-08-13 20:11:00,85.3,78.4,29.83,West,276,0.0,0.0,80,0.00,,,0.01,Wunderground v.1.15,2013-08-14 00:11:00,
2013-08-13 20:16:00,85.3,78.4,29.82,West,276,0.0,2.0,80,0.00,,,0.01,Wunderground v.1.15,2013-08-14 00:16:00,
2013-08-13 20:21:00,85.1,78.6,29.82,West,276,0.0,0.0,81,0.00,,,0.01,Wunderground v.1.15,2013-08-14 00:21:00,
2013-08-13 20:26:00,84.9,78.4,29.82,West,276,0.0,0.0,81,0.00,,,0.01,Wunderground v.1.15,2013-08-14 00:26:00,
2013-08-13 20:31:00,84.9,78.4,29.83,West,276,0.0,0.0,81,0.00,,,0.01,Wunderground v.1.15,2013-08-14 00:31:00,
2013-08-13 20:36:00,84.7,78.6,29.83,West,276,0.0,0.0,82,0.00,,,0.01,Wunderground v.1.15,2013-08-14 00:36:00,
2013-08-13 20:41:00,84.7,78.6,29.83,ESE,106,1.0,1.0,82,0.00,,,0.01,Wunderground v.1.15,2013-08-14 00:41:00,
2013-08-13 20:46:00,84.7,78.6,29.83,ESE,106,0.0,2.0,82,0.00,,,0.01,Wunderground v.1.15,2013-08-14 00:46:00,
2013-08-13 20:51:00,84.5,78.4,29.83,ESE,106,0.0,0.0,82,0.00,,,0.01,Wunderground v.1.15,2013-08-14 00:51:00,
2013-08-13 20:56:00,84.5,78.4,29.83,SSW,202,0.0,1.0,82,0.00,,,0.01,Wunderground v.1.15,2013-08-14 00:56:00,
2013-08-13 21:01:00,84.5,78.8,29.83,SW,226,0.0,1.0,83,0.00,,,0.01,Wunderground v.1.15,2013-08-14 01:01:00,
2013-08-13 21:06:00,84.3,78.6,29.83,WSW,249,0.0,3.0,83,0.00,,,0.01,Wunderground v.1.15,2013-08-14 01:06:00,
2013-08-13 21:11:00,84.3,78.6,29.83,WSW,249,0.0,0.0,83,0.00,,,0.01,Wunderground v.1.15,2013-08-14 01:11:00,
2013-08-13 21:16:00,84.3,78.6,29.84,WSW,249,0.0,0.0,83,0.00,,,0.01,Wunderground v.1.15,2013-08-14 01:16:00,
2013-08-13 21:21:00,84.3,78.9,29.84,WSW,249,0.0,0.0,84,0.00,,,0.01,Wunderground v.1.15,2013-08-14 01:21:00,
2013-08-13 21:26:00,84.1,78.7,29.84,WSW,249,0.0,0.0,84,0.00,,,0.01,Wunderground v.1.15,2013-08-14 01:26:00,
2013-08-13 21:31:00,84.1,78.7,29.84,WSW,249,0.0,0.0,84,0.00,,,0.01,Wunderground v.1.15,2013-08-14 01:31:00,
2013-08-13 21:36:00,84.1,78.7,29.84,WSW,255,0.0,0.0,84,0.00,,,0.01,Wunderground v.1.15,2013-08-14 01:36:00,
2013-08-13 21:41:00,84.1,79.1,29.84,WSW,255,0.0,0.0,85,0.00,,,0.01,Wunderground v.1.15,2013-08-14 01:41:00,
2013-08-13 21:46:00,84.0,79.0,29.85,WSW,255,0.0,0.0,85,0.00,,,0.01,Wunderground v.1.15,2013-08-14 01:46:00,
2013-08-13 21:51:00,84.0,79.0,29.85,WSW,255,0.0,0.0,85,0.00,,,0.01,Wunderground v.1.15,2013-08-14 01:51:00,
2013-08-13 21:56:00,84.0,79.0,29.85,WSW,255,0.0,0.0,85,0.00,,,0.01,Wunderground v.1.15,2013-08-14 01:56:00,
2013-08-13 22:01:00,84.0,79.0,29.85,WSW,255,0.0,0.0,85,0.00,,,0.01,Wunderground v.1.15,2013-08-14 02:01:00,
2013-08-13 22:06:00,84.0,79.0,29.85,WSW,255,0.0,0.0,85,0.00,,,0.01,Wunderground v.1.15,2013-08-14 02:06:00,
2013-08-13 22:11:00,84.0,79.0,29.85,WSW,255,0.0,0.0,85,0.00,,,0.01,Wunderground v.1.15,2013-08-14 02:11:00,
2013-08-13 22:16:00,84.0,79.0,29.86,WSW,255,0.0,0.0,85,0.00,,,0.01,Wunderground v.1.15,2013-08-14 02:16:00,
2013-08-13 22:21:00,83.8,78.8,29.86,WSW,255,0.0,2.0,85,0.00,,,0.01,Wunderground v.1.15,2013-08-14 02:21:00,
2013-08-13 22:26:00,83.8,78.8,29.86,NW,313,0.0,2.0,85,0.00,,,0.01,Wunderground v.1.15,2013-08-14 02:26:00,
2013-08-13 22:31:00,83.8,78.8,29.86,WNW,303,0.0,0.0,85,0.00,,,0.01,Wunderground v.1.15,2013-08-14 02:31:00,
2013-08-13 22:36:00,83.8,78.8,29.86,WNW,301,0.0,2.0,85,0.00,,,0.01,Wunderground v.1.15,2013-08-14 02:36:00,
2013-08-13 22:42:00,83.8,78.8,29.86,WNW,301,0.0,0.0,85,0.00,,,0.01,Wunderground v.1.15,2013-08-14 02:42:00,
2013-08-13 22:47:00,83.8,78.8,29.87,WNW,296,0.0,1.0,85,0.00,,,0.01,Wunderground v.1.15,2013-08-14 02:47:00,
2013-08-13 22:52:00,83.8,78.8,29.87,WNW,296,0.0,1.0,85,0.00,,,0.01,Wunderground v.1.15,2013-08-14 02:52:00,
2013-08-13 22:57:00,83.8,78.8,29.87,WNW,296,0.0,1.0,85,0.00,,,0.01,Wunderground v.1.15,2013-08-14 02:57:00,
2013-08-13 23:02:00,83.8,78.8,29.87,WNW,296,0.0,0.0,85,0.00,,,0.01,Wunderground v.1.15,2013-08-14 03:02:00,
2013-08-13 23:07:00,83.8,78.8,29.87,West,281,0.0,1.0,85,0.00,,,0.01,Wunderground v.1.15,2013-08-14 03:07:00,
2013-08-13 23:12:00,83.8,78.8,29.87,West,281,0.0,0.0,85,0.00,,,0.01,Wunderground v.1.15,2013-08-14 03:12:00,
2013-08-13 23:17:00,83.8,78.8,29.88,West,281,0.0,0.0,85,0.00,,,0.01,Wunderground v.1.15,2013-08-14 03:17:00,
2013-08-13 23:22:00,83.8,79.2,29.88,West,259,0.0,3.0,86,0.00,,,0.01,Wunderground v.1.15,2013-08-14 03:22:00,
2013-08-13 23:27:00,83.8,79.2,29.88,WSW,241,0.0,3.0,86,0.00,,,0.01,Wunderground v.1.15,2013-08-14 03:27:00,
2013-08-13 23:32:00,83.8,79.2,29.88,WSW,241,0.0,1.0,86,0.00,,,0.01,Wunderground v.1.15,2013-08-14 03:32:00,
2013-08-13 23:37:00,83.8,79.2,29.88,WSW,241,0.0,1.0,86,0.00,,,0.01,Wunderground v.1.15,2013-08-14 03:37:00,
2013-08-13 23:42:00,83.8,79.2,29.88,WSW,241,0.0,0.0,86,0.00,,,0.01,Wunderground v.1.15,2013-08-14 03:42:00,
2013-08-13 23:47:00,83.8,79.2,29.88,WSW,241,0.0,1.0,86,0.00,,,0.01,Wunderground v.1.15,2013-08-14 03:47:00,
2013-08-13 23:52:00,83.8,79.2,29.88,WSW,241,0.0,0.0,86,0.00,,,0.01,Wunderground v.1.15,2013-08-14 03:52:00,
2013-08-13 23:57:00,83.8,79.5,29.88,WSW,241,0.0,2.0,87,0.00,,,0.01,Wunderground v.1.15,2013-08-14 03:57:00,